sat.trackr.live / text

‹ back to catalog

STARLINK-5872

NORAD 57232 · 2023-094Q

PAYLOAD ACTIVE UNKNOWN

§ Identity

Operator
Country
US
Launch date
2023-07-07
Launch site
AFWTR
Launch vehicle
Mass (kg)
RCS (m²)

Purposes: comms

External: N2YO · Heavens-Above · Gunter

§ Orbital elements

Epoch: 2026-05-25T04:29:51.755712Z

Period
94.27 min
Inclination
43.0032°
Eccentricity
0.0001225
Mean motion
15.27574742 rev/d
Perigee alt
482.2 km
Apogee alt
483.9 km
Semi-major
6,861.2 km
B*
4.2885e-5
RAAN
318.7920°
Arg perigee
272.0428°
Mean anomaly
88.0283°
Rev number
15,947

§ Raw data

STARLINK-58721 57232U 23094Q   26145.18740458  .00000918  00000+0  42885-4 0  99902 57232  43.0032 318.7920 0001225 272.0428  88.0283 15.27574742159477

JSON: /api/v1/satellites/57232 · /tle

For live sub-satellite position, see the globe view (requires WebGL).

§ Visibility from observer

Set your observer location to see the next 7 days of passes ≥ 10°. The values pass through the URL so the page stays shareable.

No JS? Fill the form by hand. The geolocation button needs JavaScript.